| time (UTC) | temp C | wind direction | speed KPH | gust KPH | rain 1hr cm | rain 24hr cm | rain mn cm | humidity % | barometer mb |
| 20260502151557 | 11 | 246 | 0.0 | 11.3 | 0.00 | 0.00 | 0.00 | 50 | 1024.2 |
| 20260502150557 | 10 | 284 | 4.8 | 8.0 | 0.00 | 0.00 | 0.00 | 53 | 1024.3 |
| 20260502130557 | 3 | 78 | 0.0 | 0.0 | 0.00 | 0.00 | 0.00 | 77 | 1024.3 |
| 20260502123557 | 1 | 79 | 0.0 | 0.0 | 0.00 | 0.00 | 0.00 | 81 | 1024.2 |
| 20260502122557 | 1 | 61 | 0.0 | 0.0 | 0.00 | 0.00 | 0.00 | 81 | 1024.2 |
| 20260502121557 | 1 | 61 | 0.0 | 0.0 | 0.00 | 0.00 | 0.00 | 81 | 1024.1 |
| 20260502120557 | 0 | 61 | 0.0 | 0.0 | 0.00 | 0.00 | 0.00 | 81 | 1024.0 |
| 20260502115557 | 0 | 61 | 0.0 | 0.0 | 0.00 | 0.00 | 0.00 | 81 | 1024.1 |
| 20260502114557 | 0 | 61 | 0.0 | 0.0 | 0.00 | 0.00 | 0.00 | 81 | 1024.0 |
| 20260502113557 | 0 | 61 | 0.0 | 0.0 | 0.00 | 0.00 | 0.00 | 80 | 1023.9 |
| 20260502112557 | 0 | 61 | 0.0 | 0.0 | 0.00 | 0.00 | 0.00 | 79 | 1023.8 |
| 20260502111557 | 0 | 61 | 0.0 | 0.0 | 0.00 | 0.00 | 0.00 | 78 | 1023.7 |
| 20260502110557 | 0 | 61 | 0.0 | 0.0 | 0.00 | 0.00 | 0.00 | 78 | 1023.6 |
| 20260502105557 | 1 | 61 | 0.0 | 0.0 | 0.00 | 0.00 | 0.00 | 77 | 1023.5 |
| 20260502104557 | 1 | 61 | 0.0 | 0.0 | 0.00 | 0.00 | 0.00 | 77 | 1023.6 |
| 20260502103557 | 1 | 61 | 0.0 | 0.0 | 0.00 | 0.00 | 0.00 | 76 | 1023.5 |
| 20260502102557 | 1 | 61 | 0.0 | 0.0 | 0.00 | 0.00 | 0.00 | 74 | 1023.5 |
| 20260502101557 | 1 | 61 | 0.0 | 0.0 | 0.00 | 0.00 | 0.00 | 73 | 1023.4 |
| 20260502100557 | 1 | 61 | 0.0 | 0.0 | 0.00 | 0.00 | 0.00 | 72 | 1023.4 |
| 20260502090557 | 2 | 61 | 0.0 | 0.0 | 0.00 | 0.00 | 0.00 | 71 | 1023.1 |
| 20260502070556 | 3 | 61 | 0.0 | 0.0 | 0.00 | 0.00 | 0.00 | 61 | 1023.4 |
| 20260502065556 | 4 | 61 | 0.0 | 0.0 | 0.00 | 0.00 | 0.00 | 60 | 1023.3 |
| 20260502064557 | 4 | 61 | 0.0 | 0.0 | 0.00 | 0.00 | 0.00 | 58 | 1023.3 |
| 20260502063556 | 4 | 61 | 0.0 | 0.0 | 0.00 | 0.00 | 0.00 | 57 | 1023.4 |
| 20260502062557 | 5 | 61 | 0.0 | 0.0 | 0.00 | 0.00 | 0.00 | 57 | 1023.3 |
| 20260502061556 | 5 | 61 | 0.0 | 0.0 | 0.00 | 0.00 | 0.00 | 57 | 1023.3 |
| 20260502060556 | 5 | 61 | 0.0 | 0.0 | 0.00 | 0.00 | 0.00 | 57 | 1023.2 |
| 20260502055556 | 5 | 61 | 0.0 | 0.0 | 0.00 | 0.00 | 0.00 | 57 | 1023.2 |
| 20260502054556 | 5 | 61 | 0.0 | 0.0 | 0.00 | 0.00 | 0.00 | 57 | 1023.1 |
| 20260502053556 | 5 | 61 | 0.0 | 0.0 | 0.00 | 0.00 | 0.00 | 56 | 1022.9 |
| 20260502052556 | 5 | 61 | 0.0 | 0.0 | 0.00 | 0.00 | 0.00 | 56 | 1022.9 |
| 20260502051556 | 5 | 61 | 0.0 | 0.0 | 0.00 | 0.00 | 0.00 | 56 | 1022.9 |
| 20260502050556 | 5 | 61 | 0.0 | 0.0 | 0.00 | 0.00 | 0.00 | 57 | 1022.8 |
| 20260502045556 | 5 | 61 | 0.0 | 0.0 | 0.00 | 0.00 | 0.00 | 57 | 1022.7 |
| 20260502044556 | 5 | 61 | 0.0 | 0.0 | 0.00 | 0.00 | 0.00 | 58 | 1022.8 |
| 20260502043556 | 6 | 61 | 0.0 | 0.0 | 0.00 | 0.00 | 0.00 | 59 | 1022.7 |
| 20260502042556 | 6 | 61 | 0.0 | 0.0 | 0.00 | 0.00 | 0.00 | 56 | 1022.5 |
| 20260502041556 | 6 | 61 | 0.0 | 0.0 | 0.00 | 0.00 | 0.00 | 56 | 1022.6 |
| 20260502040556 | 6 | 61 | 0.0 | 0.0 | 0.00 | 0.00 | 0.00 | 56 | 1022.5 |
| 20260502035556 | 6 | 61 | 0.0 | 1.6 | 0.00 | 0.00 | 0.00 | 53 | 1022.4 |
| 20260502034556 | 6 | 61 | 0.0 | 0.0 | 0.00 | 0.00 | 0.00 | 56 | 1022.4 |
| 20260502033556 | 6 | 61 | 0.0 | 0.0 | 0.00 | 0.00 | 0.00 | 57 | 1022.4 |
| 20260502032556 | 6 | 61 | 0.0 | 0.0 | 0.00 | 0.00 | 0.00 | 56 | 1022.3 |
| 20260502031556 | 7 | 61 | 0.0 | 0.0 | 0.00 | 0.00 | 0.00 | 54 | 1022.3 |
| 20260502030556 | 7 | 61 | 0.0 | 0.0 | 0.00 | 0.00 | 0.00 | 53 | 1022.3 |
| 20260502025556 | 7 | 61 | 0.0 | 0.0 | 0.00 | 0.00 | 0.00 | 50 | 1022.2 |
| 20260502024556 | 7 | 61 | 0.0 | 1.6 | 0.00 | 0.00 | 0.00 | 50 | 1022.1 |
| 20260502023556 | 8 | 61 | 0.0 | 1.6 | 0.00 | 0.00 | 0.00 | 49 | 1022.0 |
| 20260502022556 | 8 | 63 | 0.0 | 1.6 | 0.00 | 0.00 | 0.00 | 48 | 1022.0 |
| 20260502021556 | 8 | 63 | 0.0 | 1.6 | 0.00 | 0.00 | 0.00 | 48 | 1021.9 |
| 20260502020555 | 8 | 63 | 0.0 | 1.6 | 0.00 | 0.00 | 0.00 | 47 | 1021.7 |
| 20260502015555 | 9 | 63 | 0.0 | 0.0 | 0.00 | 0.00 | 0.00 | 46 | 1021.4 |
| 20260502014556 | 10 | 63 | 0.0 | 1.6 | 0.00 | 0.00 | 0.00 | 46 | 1021.4 |
| 20260502013556 | 10 | 63 | 0.0 | 1.6 | 0.00 | 0.00 | 0.00 | 45 | 1021.3 |
| 20260502012555 | 10 | 41 | 0.0 | 3.2 | 0.00 | 0.00 | 0.00 | 44 | 1021.3 |
| 20260502011556 | 11 | 43 | 1.6 | 1.6 | 0.00 | 0.00 | 0.00 | 44 | 1021.2 |
| 20260502010555 | 11 | 44 | 1.6 | 4.8 | 0.00 | 0.00 | 0.00 | 43 | 1021.1 |
| 20260502005556 | 11 | 101 | 0.0 | 4.8 | 0.00 | 0.00 | 0.00 | 41 | 1021.0 |
| 20260502004556 | 12 | 336 | 0.0 | 9.7 | 0.00 | 0.00 | 0.00 | 40 | 1020.9 |
| 20260502003555 | 12 | 90 | 0.0 | 6.4 | 0.00 | 0.00 | 0.00 | 39 | 1020.8 |
| 20260502002555 | 13 | 44 | 1.6 | 3.2 | 0.00 | 0.00 | 0.00 | 39 | 1020.9 |
| 20260502001555 | 13 | 95 | 3.2 | 3.2 | 0.00 | 0.00 | 0.00 | 39 | 1020.8 |
| 20260502000555 | 13 | 75 | 0.0 | 4.8 | 0.00 | 0.00 | 0.00 | 38 | 1020.9 |
| 20260501235555 | 13 | 97 | 1.6 | 8.0 | 0.00 | 0.00 | 0.00 | 36 | 1020.8 |
| 20260501234556 | 13 | 24 | 0.0 | 4.8 | 0.00 | 0.00 | 0.00 | 39 | 1020.8 |
| 20260501233555 | 13 | 360 | 0.0 | 4.8 | 0.00 | 0.00 | 0.00 | 38 | 1020.7 |
| 20260501232555 | 13 | 47 | 1.6 | 4.8 | 0.00 | 0.00 | 0.00 | 38 | 1020.7 |
| 20260501231555 | 13 | 97 | 4.8 | 6.4 | 0.00 | 0.00 | 0.00 | 36 | 1020.7 |
| 20260501230555 | 13 | 27 | 4.8 | 6.4 | 0.00 | 0.00 | 0.00 | 37 | 1020.8 |
| 20260501225555 | 14 | 132 | 3.2 | 9.7 | 0.00 | 0.00 | 0.00 | 37 | 1020.8 |
| 20260501224555 | 14 | 171 | 1.6 | 6.4 | 0.00 | 0.00 | 0.00 | 38 | 1020.8 |
| 20260501223555 | 14 | 97 | 0.0 | 9.7 | 0.00 | 0.00 | 0.00 | 38 | 1020.8 |
| 20260501222555 | 14 | 120 | 1.6 | 6.4 | 0.00 | 0.00 | 0.00 | 36 | 1020.8 |
| 20260501221555 | 15 | 111 | 6.4 | 11.3 | 0.00 | 0.00 | 0.00 | 37 | 1020.8 |
| 20260501220555 | 15 | 247 | 4.8 | 4.8 | 0.00 | 0.00 | 0.00 | 37 | 1020.6 |
| 20260501215555 | 15 | 96 | 3.2 | 6.4 | 0.00 | 0.00 | 0.00 | 37 | 1020.6 |
| 20260501214555 | 15 | 127 | 1.6 | 9.7 | 0.00 | 0.00 | 0.00 | 39 | 1020.6 |
| 20260501213555 | 15 | 14 | 3.2 | 9.7 | 0.00 | 0.00 | 0.00 | 39 | 1020.3 |
| 20260501212555 | 15 | 36 | 4.8 | 8.0 | 0.00 | 0.00 | 0.00 | 37 | 1020.3 |
| 20260501211555 | 15 | 248 | 1.6 | 8.0 | 0.00 | 0.00 | 0.00 | 41 | 1020.4 |
| 20260501210555 | 15 | 286 | 6.4 | 9.7 | 0.00 | 0.00 | 0.00 | 38 | 1020.5 |
| 20260501205555 | 15 | 12 | 4.8 | 6.4 | 0.00 | 0.00 | 0.00 | 38 | 1020.6 |
| 20260501204555 | 15 | 287 | 8.0 | 8.0 | 0.00 | 0.00 | 0.00 | 39 | 1020.8 |
| 20260501203555 | 16 | 184 | 0.0 | 8.0 | 0.00 | 0.00 | 0.00 | 39 | 1020.9 |
| 20260501202555 | 16 | 226 | 4.8 | 6.4 | 0.00 | 0.00 | 0.00 | 39 | 1020.9 |
| 20260501201555 | 15 | 95 | 3.2 | 9.7 | 0.00 | 0.00 | 0.00 | 42 | 1020.9 |
| 20260501200555 | 15 | 331 | 0.0 | 6.4 | 0.00 | 0.00 | 0.00 | 41 | 1020.9 |
| 20260501195555 | 15 | 127 | 3.2 | 14.5 | 0.00 | 0.00 | 0.00 | 43 | 1020.9 |
| 20260501194555 | 16 | 198 | 9.7 | 12.9 | 0.00 | 0.00 | 0.00 | 41 | 1020.8 |
| 20260501193555 | 16 | 5 | 1.6 | 12.9 | 0.00 | 0.00 | 0.00 | 40 | 1020.9 |
| 20260501192554 | 16 | 5 | 6.4 | 8.0 | 0.00 | 0.00 | 0.00 | 44 | 1020.9 |
| 20260501191554 | 16 | 18 | 0.0 | 9.7 | 0.00 | 0.00 | 0.00 | 40 | 1021.1 |
| 20260501190555 | 16 | 237 | 3.2 | 8.0 | 0.00 | 0.00 | 0.00 | 44 | 1021.0 |
| 20260501185554 | 15 | 99 | 3.2 | 6.4 | 0.00 | 0.00 | 0.00 | 45 | 1021.0 |
| 20260501184555 | 15 | 76 | 0.0 | 12.9 | 0.00 | 0.00 | 0.00 | 43 | 1021.1 |
| 20260501183555 | 15 | 55 | 1.6 | 6.4 | 0.00 | 0.00 | 0.00 | 45 | 1021.1 |
| 20260501182554 | 15 | 5 | 1.6 | 12.9 | 0.00 | 0.00 | 0.00 | 46 | 1021.0 |
| 20260501181554 | 15 | 68 | 0.0 | 9.7 | 0.00 | 0.00 | 0.00 | 47 | 1021.1 |
| 20260501180554 | 14 | 301 | 1.6 | 9.7 | 0.00 | 0.00 | 0.00 | 48 | 1021.3 |
| 20260501175554 | 14 | 121 | 3.2 | 6.4 | 0.00 | 0.00 | 0.00 | 51 | 1021.3 |
| 20260501174554 | 14 | 174 | 1.6 | 6.4 | 0.00 | 0.00 | 0.00 | 53 | 1021.5 |
| 20260501173554 | 13 | 5 | 1.6 | 16.1 | 0.00 | 0.00 | 0.00 | 51 | 1021.7 |
| 20260501172554 | 13 | 5 | 3.2 | 14.5 | 0.00 | 0.00 | 0.00 | 53 | 1021.7 |
| 20260501171554 | 13 | 324 | 1.6 | 12.9 | 0.00 | 0.00 | 0.00 | 54 | 1021.7 |
| 20260501170554 | 13 | 318 | 3.2 | 8.0 | 0.00 | 0.00 | 0.00 | 56 | 1021.9 |
| 20260501165554 | 13 | 14 | 0.0 | 6.4 | 0.00 | 0.00 | 0.00 | 56 | 1021.8 |
| 20260501164554 | 13 | 17 | 3.2 | 6.4 | 0.00 | 0.00 | 0.00 | 57 | 1021.9 |
| 20260501163554 | 12 | 346 | 3.2 | 6.4 | 0.00 | 0.00 | 0.00 | 57 | 1022.0 |
| 20260501162554 | 12 | 144 | 3.2 | 6.4 | 0.00 | 0.00 | 0.00 | 56 | 1021.8 |
| 20260501161554 | 12 | 342 | 3.2 | 14.5 | 0.00 | 0.00 | 0.00 | 55 | 1021.7 |
| 20260501160554 | 12 | 355 | 1.6 | 11.3 | 0.00 | 0.00 | 0.00 | 56 | 1021.3 |
| 20260501155554 | 12 | 179 | 3.2 | 6.4 | 0.00 | 0.00 | 0.00 | 57 | 1021.3 |
| 20260501153554 | 11 | 132 | 0.0 | 9.7 | 0.00 | 0.00 | 0.00 | 56 | 1021.0 |